Flag for U.S.A. Weather past 2 weeks in Fairfax, Virginia, U.S.A.

Now
68 °F

Passing clouds.


Feels Like: 68 °F
Forecast: 61 / 83 °F
Wind: No wind

Location: Washington-Dulles International Airport

Current Time: Aug 27, 2015 at 10:22:31 PM

Latest Report: Aug 27, 2015 at 9:52 PM


Visibility: 10 mi

Pressure: 30.15 "Hg

Humidity: 65%

Dew point: 56 °F

Location of FairfaxLocation

Historic Weather in Fairfax — Graph

°F

Fairfax temperature yesterday

Maximum temperature yesterday: 79 °F (at 4:52 PM)
Minimum temperature yesterday: 62 °F (at 10:52 PM)
Average temperature yesterday: 71 °F

Past Weeks' High & Low Weather Summary

 TemperatureHumidityPressure
High92 °F (Aug 16, 3:52 PM)100% (Aug 20, 9:52 PM)30.22 "Hg (Aug 20, 9:52 PM)
Low55 °F (Aug 14, 5:52 AM)27% (Aug 13, 2:52 PM)29.80 "Hg (Aug 24, 3:52 PM)
Average74 °F67%30.03 "Hg
* Reported Aug 12 8:52 PM — Aug 27 8:52 PM, Fairfax, Weather by CustomWeather, © 2015

Note: Actual official high and low records may vary slightly from our data, if they occured in-between our weather recording intervals... More about our weather records

Advertising

Fairfax weather history for previous 24 hours

 ConditionsComfort  
Time TempWeatherWind HumidityBarometerVisibility
8:52 PM
Thu, Aug 27
69 °FPassing clouds.5 mph61%30.13 "Hg10 mi
7:52 PM73 °FScattered clouds.9 mph51%30.10 "Hg10 mi
6:52 PM76 °FScattered clouds.7 mph45%30.09 "Hg10 mi
5:52 PM77 °FScattered clouds.12 mph42%30.09 "Hg10 mi
4:52 PM80 °FScattered clouds.12 mph39%30.09 "Hg10 mi
3:52 PM77 °FPartly sunny.6 mph42%30.09 "Hg10 mi
2:52 PM80 °FPartly sunny.8 mph41%30.10 "Hg10 mi
1:52 PM78 °FPartly sunny.8 mph42%30.12 "Hg10 mi
12:52 PM78 °FSunny.8 mph43%30.13 "Hg10 mi
11:52 AM75 °FPartly sunny.8 mph48%30.14 "Hg10 mi
10:52 AM74 °FSunny.9 mph52%30.15 "Hg10 mi
9:52 AM72 °FPartly sunny.10 mph55%30.14 "Hg10 mi
8:52 AM68 °FBroken clouds.8 mph63%30.13 "Hg10 mi
7:52 AM63 °FPartly sunny.7 mph75%30.13 "Hg10 mi
6:52 AM60 °FPassing clouds.5 mph83%30.11 "Hg10 mi
5:52 AM57 °FPassing clouds.No wind87%30.09 "Hg10 mi
4:52 AM60 °FPassing clouds.5 mph80%30.09 "Hg10 mi
3:52 AM60 °FPassing clouds.6 mph80%30.09 "Hg10 mi
2:52 AM60 °FPassing clouds.5 mph80%30.07 "Hg10 mi
1:52 AM61 °FPassing clouds.5 mph81%30.09 "Hg10 mi
12:52 AM62 °FPassing clouds.3 mph78%30.09 "Hg10 mi
11:52 PM
Wed, Aug 26
65 °FClear.6 mph70%30.09 "Hg10 mi
10:52 PM62 °FPassing clouds.No wind78%30.08 "Hg10 mi
Weather by CustomWeather, © 2015

See weather overviewHow to use our weather pages